TimeAKDT,TemperatureF,Dew PointF,Humidity,Sea Level PressureIn,VisibilityMPH,Wind Direction,Wind SpeedMPH,Gust SpeedMPH,PrecipitationIn,Events,Conditions,WindDirDegrees,DateUTC
12:53 AM,57.0,41.0,55,29.99,10.0,Variable,4.6,-,N/A,,Partly Cloudy,0,2013-06-12 08:53:00
1:53 AM,54.0,44.1,69,30.00,10.0,NNW,5.8,-,N/A,,Overcast,340,2013-06-12 09:53:00
2:53 AM,50.0,44.1,80,30.00,10.0,North,3.5,-,N/A,,Mostly Cloudy,360,2013-06-12 10:53:00
3:53 AM,48.9,43.0,80,30.00,10.0,Calm,Calm,-,N/A,,Overcast,0,2013-06-12 11:53:00
4:53 AM,50.0,43.0,77,30.00,10.0,Calm,Calm,-,N/A,,Mostly Cloudy,0,2013-06-12 12:53:00
5:53 AM,50.0,43.0,77,30.00,10.0,Calm,Calm,-,N/A,,Scattered Clouds,0,2013-06-12 13:53:00
6:53 AM,52.0,42.1,69,30.00,10.0,ESE,3.5,-,N/A,,Clear,110,2013-06-12 14:53:00
7:53 AM,59.0,42.1,53,30.00,10.0,Calm,Calm,-,N/A,,Clear,0,2013-06-12 15:53:00
8:53 AM,61.0,43.0,52,30.00,10.0,South,3.5,-,N/A,,Clear,170,2013-06-12 16:53:00
9:53 AM,63.0,42.1,46,29.99,10.0,SE,3.5,-,N/A,,Clear,130,2013-06-12 17:53:00
10:53 AM,64.9,42.1,43,29.98,10.0,South,5.8,-,N/A,,Clear,180,2013-06-12 18:53:00
11:53 AM,68.0,43.0,40,29.97,10.0,Calm,Calm,-,N/A,,Clear,0,2013-06-12 19:53:00
12:53 PM,71.1,45.0,39,29.96,10.0,South,6.9,-,N/A,,Clear,180,2013-06-12 20:53:00
1:53 PM,72.0,44.1,37,29.95,10.0,Variable,4.6,-,N/A,,Clear,0,2013-06-12 21:53:00
2:53 PM,73.9,42.1,32,29.95,10.0,South,6.9,-,N/A,,Scattered Clouds,180,2013-06-12 22:53:00
3:53 PM,73.0,37.9,28,29.94,10.0,Variable,5.8,-,N/A,,Scattered Clouds,0,2013-06-12 23:53:00
4:53 PM,75.0,39.0,27,29.93,10.0,SE,10.4,-,N/A,,Clear,130,2013-06-13 00:53:00
5:53 PM,70.0,35.1,28,29.93,10.0,SE,12.7,-,N/A,,Scattered Clouds,140,2013-06-13 01:53:00
6:53 PM,70.0,35.1,28,29.93,10.0,SE,12.7,-,N/A,,Clear,140,2013-06-13 02:53:00
7:53 PM,69.1,35.1,29,29.93,10.0,SE,13.8,21.9,N/A,,Partly Cloudy,140,2013-06-13 03:53:00
8:53 PM,66.9,35.1,31,29.93,10.0,SE,11.5,27.6,N/A,,Clear,140,2013-06-13 04:53:00
9:53 PM,64.0,34.0,33,29.94,10.0,SE,18.4,-,N/A,,Clear,140,2013-06-13 05:53:00
10:53 PM,63.0,33.1,33,29.96,10.0,SE,17.3,24.2,N/A,,Clear,140,2013-06-13 06:53:00
11:53 PM,62.1,39.0,43,29.96,10.0,SE,19.6,26.5,N/A,,Clear,130,2013-06-13 07:53:00